SCP
1 1 1 1 1 2 2 2 1 1 1 1 1 1 1 1 1 1 1 1 1 1 1 1 1 1 1 1 0 0 0 0 0 0 0 0 0 0 0 0 0 0 0
1 1 1 1 1 2 2 1 1 1 1 1 1 1 1 1 1 1 1 1 1 1 1 1 1 1 1 1 0 0 0 0 0 0 0 0 0 0 0 0 0 0 0
1 1 1 1 1 1 1 1 1 1 1 1 1 1 1 1 1 1 1 1 1 1 1 1 1 1 1 0 0 0 0 0 0 0 0 0 0 0 0 0 0 0 0
1 1 1 1 1 1 1 1 1 1 1 1 1 1 1 1 1 1 1 1 1 1 1 1 1 1 1 0 0 0 0 0 0 0 0 0 0 0 0 0 0 0 0
1 1 1 1 2 2 2 2 2 2 1 1 1 1 1 1 1 1 1 1 1 1 1 1 1 1 1 0 0 0 0 0 0 0 0 0 0 0 0 0 0 0 0
1 1 1 1 2 2 2 2 2 2 2 1 1 1 1 1 1 1 1 1 1 1 1 1 1 1 1 0 0 0 0 0 0 0 0 0 0 0 0 0 0 0 0
1 1 1 2 2 2 2 2 2 2 2 1 1 1 1 1 1 1 1 1 1 1 1 1 1 1 1 0 0 0 0 0 0 0 0 0 0 0 0 0 0 0 0
1 1 1 1 2 2 2 2 2 2 2 1 1 1 1 1 1 1 1 1 1 1 1 1 1 1 1 1 0 0 0 0 0 0 0 0 0 0 0 0 0 0 0
1 1 1 1 1 2 2 2 2 2 2 1 1 1 1 1 1 1 1 1 1 1 1 1 1 1 1 1 1 0 0 0 0 0 0 0 0 0 0 0 0 0 0
1 1 1 1 1 1 2 2 2 2 2 1 1 1 1 1 1 1 1 1 1 1 1 1 1 1 1 1 1 0 0 0 0 0 0 0 0 0 0 0 0 0 0
1 1 1 1 1 1 1 2 2 2 2 1 1 1 1 1 1 1 1 1 1 1 1 1 1 1 1 1 0 0 0 0 0 0 0 0 0 0 0 0 0 0 0
1 1 1 1 1 1 2 2 2 2 1 1 1 1 1 1 1 1 1 1 1 1 1 1 1 1 1 0 0 0 0 0 0 0 0 0 0 0 0 0 0 0 0
1 1 1 1 1 1 2 2 2 1 1 1 1 1 1 1 1 1 1 1 1 1 1 1 1 1 0 0 0 0 0 0 0 0 0 0 0 0 0 0 0 0 0
1 1 1 1 1 1 2 1 1 1 1 1 1 1 1 1 1 1 1 1 1 1 1 1 1 0 0 0 0 0 0 0 0 0 0 0 0 0 0 0 0 0 0
1 1 1 1 1 1 1 1 1 1 1 1 1 1 1 1 1 1 1 1 1 0 1 1 0 0 0 0 0 0 0 0 0 0 0 0 0 0 0 0 0 0 0
1 1 1 1 2 1 1 1 1 1 1 1 1 1 1 1 1 1 1 1 1 1 0 0 0 0 0 0 0 0 0 0 0 0 0 0 0 0 0 0 0 0 0
1 1 1 1 2 1 1 1 1 1 1 1 1 1 1 1 1 0 0 1 1 1 1 1 0 0 0 0 0 0 0 0 0 0 0 0 0 0 0 0 0 0 0
1 1 1 1 1 1 1 1 1 1 1 1 1 1 1 1 0 0 1 1 1 1 1 1 0 0 0 0 0 0 0 0 0 0 0 0 0 0 0 0 0 0 0
1 1 1 1 1 1 1 1 1 1 1 1 1 1 0 0 0 1 1 1 1 1 1 1 1 0 0 0 0 0 0 0 0 0 0 0 0 0 0 0 0 0 0
1 1 1 1 1 1 1 1 1 1 1 1 1 1 1 1 1 1 1 1 1 1 1 1 1 0 0 0 0 0 0 0 0 0 0 0 0 0 0 0 0 0 0
1 1 1 1 1 1 1 1 1 1 1 1 1 1 1 1 1 1 1 1 1 1 1 1 1 1 0 0 0 0 0 0 0 0 0 0 0 0 0 0 0 0 0
1 1 1 1 1 1 1 1 1 1 1 1 1 1 1 1 1 1 1 1 1 1 1 1 1 0 0 0 0 0 0 0 0 0 0 0 0 0 0 0 0 0 0
1 1 1 1 1 1 1 1 1 1 1 1 1 1 1 1 1 1 1 1 1 1 1 1 1 0 0 0 0 0 0 0 0 0 0 0 0 0 0 0 0 0 0
1 1 1 1 1 1 1 1 1 1 1 1 1 1 1 1 1 1 1 1 1 1 1 1 0 0 0 0 0 0 0 0 0 0 0 0 0 0 0 0 0 0 0
1 1 1 1 1 1 1 1 1 1 1 1 1 1 1 1 1 1 1 1 1 0 0 0 0 0 0 0 0 0 0 0 0 0 0 0 0 0 0 0 0 0 0
1 1 1 1 1 1 1 1 1 1 1 1 1 1 1 1 1 1 1 0 0 0 0 0 0 0 0 0 0 0 0 0 0 0 0 0 0 0 0 0 0 0 0
Wind_Speed
7 7 7 9 8 7 7 7 7 6 4 3 3 3 3 2 2 2 4 3 2 2 1 0 2 1 1 2 2 1 1 1 0 0 1 1 1 1 1 1 2 2 3
8 8 6 7 7 6 7 7 6 6 5 4 3 3 3 2 3 2 3 3 3 2 3 2 2 2 2 2 1 1 1 1 1 0 1 1 1 1 2 2 2 2 2
8 9 8 7 8 8 8 7 6 6 5 4 2 2 2 1 1 2 2 3 3 3 2 2 2 2 2 2 2 2 2 1 1 1 1 1 1 1 1 1 2 2 2
7 10 10 8 8 8 8 7 6 6 4 4 4 4 3 3 2 2 3 3 2 2 3 3 2 2 1 2 3 3 2 2 2 1 2 2 1 1 1 1 1 2 2
7 8 9 9 8 9 8 8 7 6 5 4 3 3 2 2 2 2 3 3 3 3 3 2 2 2 2 2 2 1 2 2 2 1 1 2 2 2 2 2 1 1 1
7 8 9 8 7 7 8 8 7 6 5 4 3 3 3 2 2 2 3 3 2 2 3 2 2 2 2 1 2 2 3 2 2 2 1 1 1 1 1 1 2 2 1
7 7 8 9 8 7 8 8 8 6 5 4 4 3 3 2 2 2 2 2 2 2 2 2 2 2 2 2 2 2 3 3 3 2 2 2 2 1 1 1 1 1 1
6 7 6 6 7 7 7 8 8 7 5 4 3 3 3 2 2 2 1 2 1 2 3 2 2 2 2 2 2 2 3 3 3 3 2 2 2 2 1 1 1 1 1
7 7 6 5 5 6 5 6 7 6 5 4 4 3 3 2 1 2 2 1 1 1 3 3 3 3 2 2 2 2 3 2 2 2 2 2 2 2 2 1 1 2 2
7 7 6 5 5 5 6 6 6 6 5 4 3 3 3 2 1 1 1 1 1 1 2 3 3 3 3 2 2 2 2 2 2 2 2 2 2 2 2 2 1 1 1
8 7 6 5 5 4 5 6 6 5 5 4 3 2 2 2 2 1 1 1 1 1 2 2 3 3 3 3 3 3 3 3 3 3 3 3 3 2 2 2 1 1 1
7 7 6 5 5 4 5 5 5 5 5 4 3 3 2 2 1 1 1 1 1 1 1 1 2 3 3 3 3 4 3 3 3 3 3 3 3 3 2 2 1 1 1
6 6 5 5 4 4 4 5 4 4 4 4 4 3 2 2 1 1 0 1 1 1 1 1 2 2 2 3 3 3 3 3 3 3 3 3 3 2 2 2 2 1 1
5 5 5 5 4 4 3 4 4 4 4 3 3 2 2 2 2 1 1 1 1 2 2 2 2 3 3 3 3 3 3 3 3 3 3 2 2 2 2 3 2 2 1
5 4 4 4 4 4 3 3 3 3 3 3 3 2 2 2 2 2 2 2 2 3 2 2 2 3 2 2 2 2 3 3 2 2 2 3 2 2 1 2 1 2 1
4 4 4 4 4 3 2 3 3 2 2 2 2 2 2 2 1 2 2 2 2 2 2 2 3 3 2 0 0 2 3 2 2 2 2 3 3 4 3 1 0 1 2
4 4 4 3 3 2 2 2 2 2 2 2 2 2 2 2 1 2 1 1 1 1 2 2 2 1 1 1 1 2 3 2 2 2 2 3 3 4 3 4 4 2 2
5 4 4 3 2 2 2 1 2 2 2 2 2 2 2 2 1 1 1 2 2 2 2 2 2 1 2 1 1 3 3 3 3 3 3 3 2 3 2 4 4 4 3
4 4 4 3 2 2 1 1 1 1 2 2 1 1 1 1 1 1 2 2 2 2 3 3 3 2 2 3 3 2 3 3 3 3 3 3 3 3 3 3 3 3 3
4 4 4 3 3 1 1 0 0 1 2 2 2 1 1 2 2 2 2 2 2 3 3 3 3 3 3 4 4 3 3 3 3 3 3 3 3 3 3 3 3 4 4
4 4 4 3 2 1 1 1 1 1 2 2 2 2 2 2 2 2 2 2 3 3 4 4 4 4 4 5 6 6 3 3 3 3 2 2 4 4 4 4 3 4 4
3 3 3 2 2 1 1 1 2 1 1 2 2 2 2 3 2 2 3 3 3 3 4 4 4 3 3 4 6 7 6 4 3 2 1 1 2 4 5 4 4 5 4
1 1 1 1 1 1 1 2 2 2 2 3 3 2 3 3 2 3 3 3 3 3 3 3 3 3 3 3 7 8 8 6 3 2 2 1 3 4 4 6 6 4 4
1 0 1 1 1 1 2 2 3 3 2 3 3 3 3 3 2 2 3 3 3 3 3 3 3 3 2 1 2 3 4 5 4 3 2 3 5 4 4 4 5 5 4
1 1 2 2 2 2 2 3 3 3 3 4 3 3 4 3 3 2 2 3 3 3 3 3 3 2 2 1 2 2 2 2 2 2 2 3 3 3 4 4 4 4 4
1 1 2 2 2 2 2 2 2 3 3 4 4 3 3 2 2 2 2 2 3 4 4 4 3 2 2 3 3 3 3 3 3 3 4 4 4 4 4 4 5 5 5
Wind_Direction
146 133 139 140 143 138 140 143 144 142 147 152 168 175 174 186 186 173 147 152 172 169 173 160 154 189 158 147 147 146 243 255 283 293 254 202 191 208 193 191 177 172 166
137 128 133 140 142 145 150 149 150 152 162 165 181 182 167 182 180 159 136 160 179 181 197 179 195 183 169 173 173 171 226 251 198 223 282 249 206 216 204 186 187 181 168
150 145 156 155 153 161 161 158 152 152 167 164 180 175 147 163 150 141 152 175 179 188 216 180 196 178 187 182 197 199 224 242 252 230 210 266 248 170 222 210 168 167 172
160 159 162 165 161 162 159 153 149 149 160 171 186 178 175 187 177 165 162 164 185 199 205 195 192 196 199 177 212 202 223 225 251 259 234 233 252 166 204 247 182 186 191
167 167 160 161 163 161 160 154 150 150 160 180 189 184 188 194 158 156 146 164 191 201 209 190 181 186 206 211 225 186 223 236 244 254 264 259 247 229 192 209 202 201 185
167 162 157 153 158 160 157 154 153 156 163 175 178 179 195 197 172 166 163 181 179 183 191 186 164 177 206 220 208 216 232 242 268 281 282 259 246 249 231 202 199 196 209
154 159 151 153 162 164 156 154 151 156 163 169 173 180 200 205 185 182 184 190 183 172 170 175 159 179 200 218 212 216 238 234 245 249 260 265 262 273 254 209 216 185 197
145 142 142 147 160 158 146 146 149 156 165 165 165 171 182 203 198 189 198 204 198 167 155 169 174 188 201 216 196 215 225 229 236 247 255 273 270 270 251 227 196 201 219
142 139 134 136 139 133 131 142 150 156 161 163 167 177 181 187 184 181 208 222 190 178 164 181 183 192 203 215 195 213 229 223 223 243 252 257 275 266 269 254 208 199 216
139 130 129 132 133 136 147 147 146 153 156 160 172 170 173 180 182 206 213 210 194 190 189 190 190 197 202 202 201 217 220 219 219 224 236 238 273 280 275 275 261 222 206
135 131 133 135 131 143 144 141 142 149 155 159 159 155 166 182 190 204 228 206 216 213 216 208 200 202 202 206 209 224 217 220 220 230 227 221 240 270 274 266 269 254 211
134 134 133 135 131 133 139 139 141 149 157 154 149 147 151 162 183 202 201 194 237 233 229 224 230 221 209 209 211 230 227 220 226 232 235 229 230 233 269 279 269 258 202
127 127 127 126 126 125 127 136 144 145 148 149 151 149 151 158 176 196 148 154 245 256 237 221 242 244 225 221 220 224 234 227 227 227 227 223 226 226 244 255 261 254 236
124 127 120 120 117 116 122 134 145 143 146 147 151 157 161 165 166 176 190 183 213 240 242 230 238 241 229 228 233 236 241 236 225 215 217 213 206 210 248 245 254 255 253
121 115 110 104 110 110 115 131 131 131 140 152 160 168 169 167 176 190 201 202 219 235 244 253 249 255 242 242 258 260 243 243 243 222 206 203 190 185 219 253 251 248 238
124 111 104 98 101 108 120 120 115 122 132 152 167 161 176 188 193 202 216 225 233 241 239 247 251 254 263 222 279 285 263 242 235 230 216 208 198 194 192 189 159 275 243
112 101 98 85 86 97 104 122 128 131 142 164 169 167 184 189 202 224 200 229 261 269 272 263 259 250 297 346 329 287 276 254 236 226 231 243 217 205 190 200 209 236 249
109 106 101 93 88 83 87 112 138 151 163 181 188 173 187 197 198 215 211 215 229 240 258 265 265 251 252 244 281 297 266 256 239 229 226 229 237 238 224 222 212 215 226
104 106 112 115 107 98 99 142 157 174 197 210 205 185 196 205 208 237 248 236 232 240 250 252 254 240 232 225 220 248 267 254 236 233 230 223 226 220 232 234 219 221 230
103 109 114 115 110 103 111 44 263 234 228 227 230 224 215 220 222 230 246 255 244 244 251 251 248 240 230 220 208 210 255 255 242 229 212 204 212 204 206 229 227 233 242
101 113 116 119 116 111 99 297 283 256 262 259 254 248 237 231 224 227 234 245 241 239 242 249 246 243 232 211 207 205 239 260 255 235 231 199 182 198 214 230 244 241 257
94 113 120 130 139 149 193 268 285 289 287 277 262 254 243 246 229 231 234 239 245 244 241 243 249 246 223 208 203 205 224 258 272 268 257 218 181 211 226 230 239 248 261
103 107 158 152 162 177 225 275 287 298 300 294 272 248 240 238 232 229 239 242 239 243 249 244 247 249 229 202 196 203 221 237 256 286 290 268 218 211 225 231 232 238 243
161 203 235 230 232 240 247 270 286 287 285 283 277 253 237 234 235 239 244 251 256 259 258 255 257 253 239 202 182 202 214 221 233 264 282 257 230 233 234 222 221 223 232
196 233 233 239 244 253 257 257 263 267 276 277 274 266 251 246 232 232 246 247 241 237 248 262 262 262 254 218 186 194 218 226 227 232 235 240 237 227 219 219 219 218 222
251 256 253 262 258 259 274 276 262 260 267 274 274 270 261 249 246 240 251 274 245 223 222 236 254 264 240 207 195 214 226 229 210 219 237 235 233 235 229 223 218 217 223